Regional Weather Roundup
Issued by NWS

Home | Current Version | Previous Version | Text Only | Print | Product List | Glossary On
Versions: 1 2 3 4 5 6 7 8 9 10 11 12 13 14 15 16 17 18 19 20 21 22 23 24 25 26 27 28 29 30 31 32 33 34 35 36 37 38 39 40 41 42 43 44 45 46 47 48 49 50
000
ASUS44 KOUN 282010
RWROK

WEATHER ROUNDUP FOR OKLAHOMA
NATIONAL WEATHER SERVICE NORMAN OK
300 PM CDT THU APR 28 2016

NOTE: "FAIR" INDICATES FEW OR NO CLOUDS BELOW 12,000 FEET WITH NO
      SIGNIFICANT WEATHER AND/OR OBSTRUCTIONS TO VISIBILITY.

OKZ001>007-009>012-014-015-017-282100-
NORTHWEST OKLAHOMA AND THE PANHANDLE

CITY           SKY/WX    TMP DP  RH WIND       PRES   REMARKS
GAGE           SUNNY     69  43  38 E12G20    29.91F
GUYMON         MOSUNNY   61  38  42 NE12      29.92F
ENID/WOODRING  PTSUNNY   68  48  49 NE12      29.95F
$$

OKZ016-021>023-033>039-044-045-282100-
SOUTHWEST OKLAHOMA

CITY           SKY/WX    TMP DP  RH WIND       PRES   REMARKS
LAWTON/REGL    SUNNY     78  55  44 SE14G26   29.86F
LAWTON/FT SILL SUNNY     78  56  47 SE18      29.85F
FREDERICK      SUNNY     78  57  48 E20G25    29.81F
CLINTON        SUNNY     72  48  42 E16G26    29.91F
HOBART         SUNNY     76  53  44 SE17      29.87F
ALTUS AFB      SUNNY     76  55  47 E22G29    29.84F
$$

OKZ018>020-024>031-282100-
CENTRAL OKLAHOMA

CITY           SKY/WX    TMP DP  RH WIND       PRES   REMARKS
OKLAHOMA CITY  PTSUNNY   72  48  42 SE8       29.93F
OKC/WILEY POST MOSUNNY   71  49  45 E9        29.93F
OKC/TINKER AFB MOSUNNY   72  49  43 E9        29.92F
STILLWATER     PTSUNNY   69  47  45 E7        29.95S
GUTHRIE        MOSUNNY   70  46  42 SE7       29.94F
$$

OKZ008-013-054>072-282100-
NORTHEAST OKLAHOMA

CITY           SKY/WX    TMP DP  RH WIND       PRES   REMARKS
TULSA          CLOUDY    72  48  42 E6        29.94F
TULSA/JONES    MOSUNNY   73  47  39 VRB7      29.95F
PONCA CITY     PTSUNNY   68  46  45 N7        29.96F
BARTLESVILLE   MOSUNNY   71  45  39 MISG      29.98S
MUSKOGEE       SUNNY     74  48  39 CALM      29.95S
$$

OKZ032-040>043-046>053-073>077-282100-
SOUTH CENTRAL/SOUTHEAST OKLAHOMA

CITY           SKY/WX    TMP DP  RH WIND       PRES   REMARKS
ARDMORE/DWNTWN SUNNY     77  52  41 SE7       29.89F
MCALESTER      MOSUNNY   80  48  32 VRB6      29.92F
$$




USA.gov is the U.S. government's official web portal to all federal, state and local government web resources and services.